Flag for Germany Weather past 2 weeks in Göppingen, Baden-Württemberg, Germany

Now
58 °F

Overcast.


Feels Like: 58 °F
Forecast: 48 / 61 °F
Wind: 3 mph from Northwest

Location: Stoetten

Current Time: Aug 31, 2014 at 2:28:30 AM

Latest Report: Aug 31, 2014 at 2:00 AM


Visibility: 22 mi

Pressure: 30.04 "Hg

Humidity: 84%

Dew point: 53 °F

Location of GöppingenLocation

Historic Weather in Göppingen — Graph

°F

Göppingen temperature yesterday

Maximum temperature yesterday: 66 °F (at 5:00 PM)
Minimum temperature yesterday: 55 °F (at 7:00 AM)
Average temperature yesterday: 60 °F

Past Weeks' High & Low Weather Summary

 TemperatureHumidityPressure
High68 °F (Aug 28, 6:00 PM)100% (Aug 16, 9:00 AM)30.19 "Hg (Aug 16, 9:00 AM)
Low44 °F (Aug 24, 3:00 AM)46% (Aug 21, 2:00 PM)29.69 "Hg (Aug 26, 8:00 AM)
Average55 °F80%30.00 "Hg
* Reported Aug 16 1:00 AM — Aug 31 1:00 AM, Göppingen, Weather by CustomWeather, © 2014

Note: Actual official high and low records may vary slightly from our data, if they occured in-between our weather recording intervals... More about our weather records

Advertising

Göppingen weather history for previous 24 hours

 ConditionsComfort  
Time TempWeatherWind HumidityBarometerVisibility
1:00 AM
Aug 31
58 °FOvercast.2 mph81%30.05 "Hg22 mi
12:00 AM59 °FOvercast.1 mph80%30.05 "Hg22 mi
11:00 PM
Aug 30
58 °FOvercast.2 mph82%30.07 "Hg25 mi
10:00 PM58 °FOvercast.3 mph81%30.08 "Hg25 mi
9:00 PM59 °FPassing clouds.2 mph76%30.06 "Hg43 mi
8:00 PM62 °FScattered clouds.2 mph73%30.05 "Hg43 mi
7:00 PM64 °FScattered clouds.3 mph66%30.03 "Hg47 mi
6:00 PM66 °FPassing clouds.5 mph62%30.03 "Hg47 mi
5:00 PM66 °FPassing clouds.5 mph64%30.03 "Hg47 mi
4:00 PM66 °FPassing clouds.6 mph63%30.04 "Hg47 mi
3:00 PM65 °FScattered clouds.6 mph61%30.05 "Hg47 mi
2:00 PM65 °FScattered clouds.5 mph71%30.07 "Hg43 mi
1:00 PM64 °FPartly sunny.5 mph73%30.09 "Hg43 mi
12:00 PM62 °FPartly sunny.6 mph77%30.10 "Hg43 mi
11:00 AM61 °FScattered clouds.5 mph83%30.11 "Hg37 mi
10:00 AM59 °FScattered clouds.5 mph88%30.11 "Hg19 mi
9:00 AM56 °FScattered clouds.6 mph95%30.11 "Hg16 mi
8:00 AM55 °FFog.5 mph99%30.11 "Hg12 mi
7:00 AM55 °FFog.6 mph100%30.10 "Hg0 mi
6:00 AM56 °FFog.5 mph100%30.10 "Hg0 mi
5:00 AM56 °FLow clouds.7 mph100%30.09 "Hg1 mi
4:00 AM56 °FLow clouds.5 mph100%30.09 "Hg1 mi
3:00 AM57 °FLow clouds.6 mph95%30.09 "Hg12 mi
2:00 AM57 °FLight rain. Low clouds.3 mph99%30.08 "Hg0 mi
Weather by CustomWeather, © 2014

See weather overviewHow to use our weather pages